This demonstration page uses our WeatherBlox Daily Observations layout. Learn more.

Left ArrowRight Arrow

41.86663, -103.66717

Hourly Observations for April 21, 2021

Temp ( °F °C ) Dew Point ( °F °C ) Humidity (%) Winds ( mph kmh ) Pressure ( in mb ) Visibility ( mi km ) Precip ( " mm )
12:53 am 00:53 Partly Cloudy 25 -3.9 18 -7.8 75 75 NW 6 9 30.37 1029 10 16.0934 0 0
1:53 am 01:53 Mostly Cloudy 23 -5 17 -8.3 78 78 Calm 30.37 1029 10 16.0934 0 0
2:53 am 02:53 Mostly Clear 20 -6.7 16 -8.9 85 85 NNW 3 6 30.37 1028 10 16.0934 0 0
3:53 am 03:53 Mostly Clear 19 -7.2 14 -10 81 81 Calm 30.37 1028 10 16.0934 0 0
4:53 am 04:53 Cloudy 22 -5.6 17 -8.3 82 82 Calm 30.35 1028 10 16.0934 0 0
5:53 am 05:53 Cloudy 25 -3.9 19 -7.2 78 78 Calm 30.34 1027 10 16.0934 0 0
6:53 am 06:53 Cloudy 25 -3.9 20 -6.7 81 81 Calm 30.37 1028 10 16.0934 0 0
7:53 am 07:53 Sunny 29 -1.7 22 -5.6 75 75 NNE 3 6 30.35 1028 10 16.0934 0 0
8:53 am 08:53 Sunny 32 0 20 -6.7 61 61 VRB 3 6 30.34 1028 10 16.0934 0 0
9:53 am 09:53 Sunny 36 2.2 19 -7.2 50 50 Calm 30.32 1027 10 16.0934 0 0
10:53 am 10:53 Sunny 38 3.3 19 -7.2 46 46 VRB 6 9 30.3 1026 10 16.0934 0 0
11:53 am 11:53 Mostly Sunny 40 4.4 19 -7.2 43 43 VRB 7 11 30.28 1025 10 16.0934 0 0
12:53 pm 12:53 Mostly Cloudy 42 5.6 19 -7.2 40 40 WSW 14 22 30.24 1024 10 16.0934 0 0
1:53 pm 13:53 Partly Cloudy 45 7.2 20 -6.7 37 37 VRB 6 9 30.21 1023 10 16.0934 0 0
2:53 pm 14:53 Cloudy 47 8.3 21 -6.1 36 36 undefined N/A 30.18 1022 10 16.0934 0 0
3:53 pm 15:53 Cloudy 45 7.2 19 -7.2 35 35 SE 6 9 30.16 1021 10 16.0934 0 0
4:53 pm 16:53 Mostly Sunny 45 7.2 18 -7.8 34 34 SW 6 9 30.13 1020 10 16.0934 0 0
5:53 pm 17:53 Cloudy 45 7.2 20 -6.7 37 37 S 10 17 30.11 1020 10 16.0934 0 0
6:53 pm 18:53 Mostly Cloudy 43 6.1 21 -6.1 42 42 S 13 20 30.11 1020 10 16.0934 0 0
7:53 pm 19:53 Clear 38 3.3 22 -5.6 52 52 S 7 11 30.1 1019 10 16.0934 0 0
8:53 pm 20:53 Cloudy 40 4.4 24 -4.4 53 53 S 10 17 30.09 1019 10 16.0934 0 0
9:53 pm 21:53 Cloudy 38 3.3 24 -4.4 57 57 SE 9 15 30.08 1019 10 16.0934 0 0
10:53 pm 22:53 Clear 35 1.7 24 -4.4 64 64 SE 8 13 30.06 1018 10 16.0934 0 0
11:53 pm 23:53 Partly Cloudy 33 0.6 24 -4.4 70 70 ESE 7 11 30.05 1018 10 16.0934 0 0

Powered by AerisWeather